Wind_Speed
17 18 18 18 18 18 18 18 18 18 19 20 20 19 18 18 19 19 20 21 20 20 19 19 19 19 19 18 17 17 17 16 16 15 15 14 14 14 13 13 12 12 11 11
17 17 17 18 19 19 20 20 17 16 19 21 21 19 18 19 20 20 21 22 21 21 20 19 19 19 19 19 18 18 18 17 17 16 15 14 14 14 14 13 13 12 12 11
17 16 17 18 20 21 21 21 19 17 19 20 21 20 19 19 20 21 22 22 21 22 21 20 19 19 19 19 19 19 18 18 17 16 15 14 14 14 14 14 13 12 12 12
17 17 18 19 21 21 20 20 20 18 18 19 19 19 19 19 20 21 21 22 22 22 20 19 20 19 19 19 19 18 17 16 16 16 15 15 15 15 15 14 14 13 13 13
18 18 19 21 21 19 19 18 19 19 19 19 19 18 18 19 20 21 22 21 19 19 19 19 20 19 19 19 19 18 18 17 17 16 16 17 17 16 16 16 16 15 14 14
19 19 19 19 20 20 19 19 19 18 17 20 18 18 19 19 22 21 21 20 18 18 19 19 19 19 18 18 18 17 17 17 17 17 17 17 18 17 17 16 16 16 16 15
17 18 18 19 19 20 19 19 17 18 18 19 17 18 19 19 21 21 22 20 19 19 20 19 18 18 18 17 16 16 17 16 16 17 17 17 18 18 17 17 17 17 16 16
17 18 18 19 20 19 20 19 19 18 17 17 17 19 19 19 19 21 23 22 22 20 20 20 18 18 18 17 16 16 17 16 16 17 17 17 17 18 18 18 17 17 17 17
17 18 18 19 20 21 20 20 19 19 17 17 17 20 22 21 21 22 21 20 21 20 20 20 19 19 18 17 16 16 16 17 17 17 18 17 17 17 18 18 17 17 18 18
20 19 19 19 20 21 20 20 20 21 19 19 18 21 23 24 23 22 22 22 22 21 20 19 19 20 18 17 17 17 16 16 17 17 17 18 17 17 17 17 17 18 19 20
21 21 19 20 21 20 20 21 21 21 21 20 18 20 22 24 22 21 21 22 22 21 21 20 20 21 20 19 18 17 17 17 18 18 18 18 18 17 18 18 19 19 19 20
21 21 21 21 20 20 19 20 20 22 22 21 20 21 22 22 21 22 21 20 20 20 22 22 21 21 21 20 19 19 18 18 19 19 19 19 19 18 19 19 20 21 21 22
21 22 21 20 20 20 22 21 21 21 22 22 21 23 24 23 22 22 21 21 21 21 22 22 22 21 20 20 20 19 19 18 18 18 19 19 19 19 20 20 21 22 22 23
23 24 22 21 20 21 22 22 21 21 23 22 22 23 23 24 24 22 22 22 22 23 23 23 22 22 21 21 21 20 20 20 20 20 20 20 20 20 20 21 21 22 22 23
25 25 24 22 21 22 23 22 22 23 23 23 23 25 25 24 23 23 23 23 23 24 24 24 22 21 21 21 21 21 20 20 20 21 21 21 21 21 21 22 22 23 23 23
25 25 25 23 22 22 22 22 23 24 24 23 25 26 27 27 24 25 24 24 24 25 25 25 24 23 23 22 22 22 22 22 22 21 21 21 21 21 22 23 23 24 24 25
24 24 24 23 23 23 24 22 22 23 24 24 26 26 26 27 26 25 23 24 24 24 24 25 25 25 24 23 23 23 23 23 23 23 22 22 22 23 24 24 25 25 25 25
24 24 24 23 23 24 24 22 23 24 24 25 26 26 26 26 26 26 26 26 26 24 25 26 26 26 25 25 25 25 25 25 25 25 24 24 24 24 25 25 25 26 26 26
23 24 24 23 23 23 22 22 23 25 25 26 26 27 27 28 27 27 27 27 28 26 26 27 27 27 27 26 27 26 26 26 27 26 26 26 26 26 25 25 25 26 27 27
24 25 24 23 22 22 23 23 24 24 25 27 27 27 28 28 28 28 28 28 28 27 26 27 28 28 28 27 27 28 28 28 28 27 27 27 27 27 27 27 27 27 27 27
25 25 25 25 24 23 25 24 24 25 26 27 27 26 27 28 29 29 29 28 28 28 27 28 29 28 28 28 28 29 28 28 28 28 29 29 29 28 28 28 28 27 28 28
25 25 25 24 25 25 27 26 27 27 27 27 27 27 27 28 28 28 28 28 28 28 27 28 28 28 28 29 29 29 29 29 29 29 30 29 29 29 28 28 27 27 27 27
25 25 26 26 26 27 27 28 28 28 28 28 28 28 28 27 28 29 29 28 28 28 28 28 29 29 29 29 29 29 28 29 29 29 29 28 28 28 27 26 27 27 27 27
25 26 27 27 27 27 28 28 28 27 28 29 29 29 28 29 29 29 29 29 28 28 28 28 29 28 28 28 28 28 28 28 28 28 27 26 26 27 27 26 26 26 26 26
25 25 26 27 26 27 28 28 28 29 29 29 29 29 29 30 30 30 29 28 29 28 28 28 28 28 28 28 27 27 28 28 27 27 27 27 27 26 27 27 26 26 26 26
24 25 26 26 27 27 27 28 28 28 30 31 30 30 29 29 29 29 28 27 28 28 27 27 28 28 28 28 27 27 27 27 27 27 27 27 26 27 27 27 26 26 26 26
Wind_Direction
249 244 243 241 239 238 236 239 243 244 247 247 254 255 255 260 263 265 267 269 272 273 274 278 280 283 284 286 285 285 285 287 286 285 282 280 280 279 279 282 283 284 284 283
250 246 243 240 237 236 233 234 234 239 245 247 251 254 252 257 264 264 265 268 271 274 275 277 279 280 281 283 284 282 281 282 282 280 278 277 275 277 277 278 278 280 279 275
248 247 242 239 235 233 234 234 229 234 247 253 256 254 251 256 262 262 265 268 269 271 271 273 276 278 278 280 282 282 281 279 278 276 275 275 273 276 276 275 276 278 275 273
244 240 238 242 239 235 237 239 234 231 240 252 256 257 256 255 261 262 263 264 265 271 273 274 277 278 279 279 280 283 282 279 276 277 275 274 274 273 273 274 271 272 271 271
244 240 239 239 240 237 236 235 235 233 239 244 252 259 260 264 262 262 264 261 263 270 274 274 278 280 280 279 279 280 279 278 277 277 276 273 271 269 271 271 270 269 268 269
243 240 241 241 238 237 234 234 235 236 242 247 248 254 258 263 266 263 265 263 260 264 269 271 275 277 278 278 278 277 275 275 276 278 277 274 271 269 269 270 270 269 267 267
247 245 243 240 237 237 234 233 236 241 243 250 254 256 257 261 265 267 268 263 261 264 267 271 272 273 275 276 277 275 272 273 275 277 278 275 270 269 270 270 268 267 268 267
247 247 247 244 241 239 233 230 232 236 244 254 256 256 258 255 256 261 263 261 264 268 270 273 272 274 275 274 274 274 273 273 275 276 277 276 272 271 271 269 266 267 267 267
237 243 240 240 240 236 235 235 234 237 241 252 253 252 259 260 258 254 256 262 266 269 268 270 271 273 269 269 272 274 275 275 275 277 275 278 274 270 267 267 266 267 267 268
233 236 236 239 240 240 236 236 235 232 237 243 252 258 262 260 259 260 265 265 264 266 266 269 267 268 270 270 270 271 275 277 276 276 275 277 275 270 267 266 266 269 269 272
235 234 239 240 241 239 236 234 234 234 234 239 248 254 260 266 265 264 265 261 259 261 265 269 268 268 269 269 269 271 275 278 277 275 276 277 276 271 267 265 267 269 270 272
236 237 237 238 238 241 242 245 241 237 236 235 244 256 255 259 263 264 262 259 259 262 267 269 271 266 263 265 266 268 272 275 275 276 277 277 274 271 270 268 269 270 271 274
236 236 237 237 236 237 239 242 240 241 242 239 243 256 256 258 260 262 264 264 264 264 267 269 269 264 262 264 265 267 270 272 274 276 278 276 274 272 271 270 270 271 272 275
237 235 236 238 237 237 240 241 241 240 242 244 244 255 260 261 259 261 265 266 266 264 265 267 270 265 263 263 264 267 270 272 274 276 276 277 275 275 274 274 274 274 275 277
238 237 238 238 237 237 240 240 240 240 241 244 247 252 260 263 259 261 264 264 265 265 264 266 268 264 262 262 263 266 270 273 275 277 277 276 276 275 275 275 276 276 277 277
241 239 239 238 236 237 241 242 241 242 243 245 248 250 257 263 263 261 261 263 264 265 264 263 262 262 262 263 264 266 267 271 274 276 277 276 275 275 276 276 277 278 278 277
242 243 241 240 239 239 239 238 241 244 244 244 248 253 257 258 259 262 262 263 264 265 264 263 261 257 260 262 264 264 265 268 271 273 275 275 276 277 277 277 278 279 279 280
242 242 241 240 241 243 245 242 244 246 247 246 247 250 253 256 260 263 263 262 265 266 264 263 262 259 258 261 263 264 266 267 268 270 271 273 274 276 278 278 278 279 280 280
242 239 240 240 241 244 247 246 245 245 246 247 248 247 249 254 260 263 264 263 265 267 266 263 262 262 260 260 261 264 266 267 268 268 269 271 272 274 276 278 279 279 280 280
242 240 240 241 242 244 247 245 244 245 246 247 248 249 251 254 258 261 265 266 266 266 266 264 263 262 263 261 261 263 265 267 268 268 269 270 271 273 274 276 277 278 278 279
243 242 242 241 244 246 247 247 246 245 248 250 251 253 256 258 260 263 266 268 268 266 265 264 263 263 264 264 263 263 265 266 267 268 269 269 270 271 273 274 276 276 276 277
241 242 244 244 245 245 247 249 249 250 252 253 254 256 258 260 261 264 265 266 266 265 265 264 265 266 266 266 265 265 265 266 268 269 269 269 270 271 272 273 274 275 276 276
238 241 242 243 244 246 247 249 252 252 253 255 256 257 259 260 262 262 263 263 263 265 266 266 265 266 266 265 265 266 266 267 269 270 270 271 270 270 272 273 274 275 277 277
237 239 242 245 246 247 249 251 253 254 254 255 256 258 260 261 264 264 263 263 263 264 265 265 266 267 267 266 265 266 266 267 268 269 270 269 270 270 271 273 275 276 277 277
241 244 244 244 247 251 254 255 255 255 256 258 257 258 261 262 261 263 263 263 263 264 264 265 265 267 267 266 266 267 266 267 268 269 268 267 268 270 272 273 274 275 277 278
243 244 247 249 251 254 257 259 260 260 259 259 261 262 263 264 264 265 264 265 265 265 265 265 265 265 266 265 265 267 269 270 271 271 269 267 268 270 272 273 274 275 276 277
Height
5832 5834 5836 5839 5841 5844 5847 5850 5853 5855 5856 5857 5858 5859 5860 5861 5861 5861 5861 5861 5861 5861 5861 5860 5860 5859 5859 5858 5858 5858 5857 5857 5856 5855 5855 5855 5855 5855 5856 5856 5856 5856 5856 5856
5829 5831 5833 5835 5837 5840 5842 5845 5848 5852 5852 5852 5854 5855 5856 5857 5858 5858 5857 5857 5856 5856 5856 5856 5856 5855 5855 5855 5855 5854 5854 5853 5853 5852 5852 5852 5852 5852 5853 5853 5853 5853 5853 5853
5825 5828 5829 5830 5833 5835 5837 5840 5844 5847 5848 5848 5850 5851 5852 5853 5854 5853 5853 5852 5852 5852 5852 5852 5852 5851 5851 5851 5851 5850 5850 5849 5849 5849 5849 5849 5849 5849 5849 5849 5850 5850 5850 5851
5820 5823 5824 5826 5828 5830 5833 5836 5840 5842 5843 5845 5846 5847 5848 5848 5848 5848 5849 5848 5848 5848 5847 5848 5847 5847 5847 5847 5846 5846 5845 5845 5846 5846 5846 5845 5846 5846 5846 5846 5847 5847 5848 5848
5817 5819 5820 5821 5824 5826 5829 5832 5835 5836 5838 5840 5842 5842 5844 5843 5843 5844 5844 5843 5843 5843 5843 5844 5843 5843 5843 5842 5842 5842 5841 5841 5842 5842 5842 5842 5842 5842 5842 5843 5843 5844 5845 5845
5813 5815 5816 5818 5820 5822 5824 5827 5829 5831 5833 5835 5838 5839 5839 5839 5839 5839 5839 5839 5839 5839 5839 5839 5839 5838 5838 5838 5838 5838 5837 5837 5837 5837 5837 5837 5838 5838 5838 5839 5839 5840 5841 5842
5809 5810 5812 5813 5815 5818 5821 5823 5826 5828 5829 5831 5834 5835 5835 5835 5835 5835 5835 5834 5833 5834 5834 5834 5834 5833 5833 5833 5833 5833 5833 5833 5833 5833 5833 5833 5833 5834 5834 5835 5836 5837 5838 5838
5806 5808 5808 5809 5811 5814 5817 5820 5823 5825 5827 5829 5830 5830 5830 5829 5830 5830 5830 5829 5829 5830 5830 5828 5829 5829 5829 5829 5829 5829 5829 5829 5829 5830 5829 5829 5829 5830 5830 5831 5832 5833 5834 5835
5802 5805 5805 5806 5808 5810 5813 5815 5819 5822 5823 5825 5826 5826 5825 5824 5824 5823 5824 5824 5825 5825 5825 5825 5824 5824 5824 5825 5825 5825 5825 5825 5825 5825 5825 5825 5825 5826 5826 5827 5828 5829 5830 5831
5796 5798 5801 5802 5803 5805 5808 5811 5814 5816 5818 5820 5822 5821 5821 5820 5819 5820 5819 5820 5821 5820 5820 5821 5821 5820 5820 5821 5821 5821 5821 5821 5821 5821 5821 5822 5822 5822 5823 5824 5824 5825 5826 5826
5791 5793 5796 5797 5798 5801 5803 5805 5807 5810 5813 5815 5816 5818 5815 5814 5814 5815 5815 5815 5815 5815 5815 5816 5816 5816 5816 5817 5817 5817 5817 5817 5817 5817 5817 5818 5818 5818 5819 5820 5821 5821 5822 5822
5785 5787 5789 5792 5794 5796 5798 5800 5803 5805 5806 5808 5810 5813 5809 5809 5809 5809 5809 5809 5810 5811 5811 5811 5811 5811 5812 5812 5812 5813 5813 5813 5812 5813 5813 5813 5814 5814 5815 5816 5817 5817 5817 5818
5780 5782 5784 5787 5791 5792 5793 5795 5797 5800 5801 5803 5805 5807 5803 5803 5804 5804 5805 5805 5806 5806 5806 5806 5805 5806 5807 5807 5807 5808 5808 5808 5808 5808 5809 5809 5809 5810 5811 5811 5812 5812 5813 5813
5774 5776 5779 5783 5785 5786 5787 5789 5791 5794 5795 5797 5799 5799 5798 5798 5798 5799 5799 5800 5800 5800 5800 5800 5800 5801 5801 5802 5802 5803 5803 5804 5804 5804 5804 5804 5805 5805 5806 5806 5807 5807 5808 5808
5768 5770 5773 5776 5778 5780 5782 5784 5786 5788 5789 5792 5793 5793 5792 5792 5792 5793 5793 5794 5794 5794 5794 5795 5795 5796 5796 5796 5797 5797 5798 5798 5799 5799 5799 5800 5800 5800 5801 5801 5802 5802 5802 5802
5762 5765 5767 5770 5772 5774 5776 5778 5780 5782 5784 5785 5786 5787 5786 5785 5785 5786 5787 5788 5788 5789 5789 5789 5789 5790 5791 5791 5791 5792 5793 5793 5793 5793 5794 5794 5794 5795 5795 5795 5795 5796 5796 5795
5756 5759 5761 5764 5766 5768 5770 5773 5774 5775 5777 5779 5779 5781 5780 5779 5780 5780 5780 5782 5782 5782 5782 5783 5783 5784 5784 5785 5786 5786 5787 5787 5788 5788 5788 5789 5789 5789 5789 5789 5789 5789 5789 5789
5750 5752 5755 5758 5761 5761 5766 5767 5768 5769 5771 5772 5771 5773 5773 5773 5773 5774 5775 5775 5775 5775 5776 5776 5776 5777 5778 5778 5780 5780 5781 5781 5781 5782 5782 5782 5783 5783 5782 5782 5782 5782 5782 5782
5744 5746 5749 5751 5753 5755 5759 5760 5761 5762 5764 5764 5764 5765 5766 5767 5767 5768 5768 5769 5769 5770 5769 5769 5770 5771 5771 5771 5773 5774 5774 5774 5775 5775 5776 5776 5776 5776 5776 5775 5775 5775 5775 5774
5738 5740 5743 5745 5747 5749 5752 5752 5753 5756 5756 5756 5757 5758 5759 5760 5761 5761 5761 5762 5762 5762 5763 5763 5763 5763 5764 5765 5766 5767 5767 5767 5767 5768 5768 5768 5768 5768 5768 5768 5768 5768 5767 5767
5732 5734 5736 5738 5740 5742 5743 5745 5747 5749 5749 5749 5750 5751 5752 5753 5754 5754 5754 5754 5755 5755 5755 5755 5754 5755 5756 5757 5758 5758 5759 5759 5760 5760 5760 5760 5760 5760 5760 5760 5760 5760 5760 5759
5726 5728 5730 5732 5734 5736 5736 5738 5740 5740 5740 5742 5743 5744 5744 5745 5746 5746 5746 5747 5747 5747 5748 5748 5747 5747 5748 5749 5750 5750 5751 5751 5752 5752 5752 5752 5752 5752 5752 5752 5752 5752 5752 5752
5720 5722 5723 5725 5727 5727 5728 5730 5731 5732 5733 5734 5735 5736 5737 5737 5737 5738 5739 5739 5740 5740 5740 5740 5740 5740 5741 5741 5742 5742 5743 5743 5743 5743 5743 5743 5743 5744 5744 5744 5744 5744 5744 5744
5713 5715 5716 5717 5718 5719 5720 5722 5723 5725 5726 5727 5727 5728 5729 5730 5730 5730 5731 5731 5732 5732 5732 5732 5732 5733 5733 5733 5734 5734 5734 5734 5735 5735 5735 5735 5735 5736 5736 5737 5736 5736 5736 5735
5707 5708 5709 5710 5711 5712 5713 5714 5716 5717 5718 5719 5719 5720 5721 5721 5721 5721 5722 5722 5723 5724 5724 5724 5724 5725 5725 5725 5726 5726 5726 5726 5727 5727 5727 5727 5728 5728 5729 5729 5729 5729 5729 5728
5700 5701 5702 5703 5704 5705 5706 5707 5708 5709 5710 5710 5711 5712 5712 5712 5713 5713 5714 5714 5715 5715 5715 5715 5716 5716 5716 5717 5717 5718 5718 5718 5718 5718 5718 5719 5720 5720 5721 5721 5721 5721 5722 5721